Starlink 30347

operational
NORAD ID: 57699 Int'l Des: 2023-129 Owner: SPXS Country: US Constellation: starlink
LEOCIRCULAR

Über Starlink 30347

Beschreibung wird geladen...

Live-Position

3D-Globus wird geladen...

Nächste Überflüge

Höhenverlauf

Altitude vs Time

uPlot chart will show altitude changes over time

Zweizeiliger Elementsatz

1 57699U 23129B 25350.88428867 -.00000421 00000-0 -16086-4 0 9993
2 57699 43.0017 197.8500 0001145 267.3148 92.7563 15.02535110128348
Epoch: 16. Dez. 2025 • Age: 8 hours

Aktueller Status

Höhe 571.3 km
Geschwindigkeit 7.58 km/s
Subsatellitenpunkt -42.15°S, 37.6°W
Startdatum 27. Aug. 2023
Alter 2.3 years
Typ internet

Technische Details

Klassifizierung Payload
Masse 730.00 kg
Trockenmasse 700.00 kg
Gesamtmasse 730.00 kg
Länge 0.30 m
Durchmesser 4.10 m
Spannweite 29.00 m
Form Box + pan
Hersteller SPXS
Bus-Typ Starlink V2M
Phasenstatus In Orbit
Besitzer/Staat SPXS/US

Große Konstellationen

Loading constellations...